Estación Meteorológica Peña el Pijo (Robertgarden) [ 07/12/20 07:55:55 CEST ]

Fecha Hora Presion(HPa) Temp (°C) Humedad % Rocio (°C) Viento ( m/s) Direccion Lluvia 1Hora(mm) Lluvia 24H(mm) LLuvia Total(mm)
2019-Dec-18 01:08:52 1004.000 - - - - S     39.88
2019-Dec-18 02:09:38 1004.100 - - - - S     39.88
2019-Dec-18 03:09:22 1004.500 - - - - S     39.88
2019-Dec-18 04:11:21 1004.500 - - - - S     39.88
2019-Dec-18 05:09:22 1004.600 - - - - S     39.88
2019-Dec-18 06:09:22 1004.800 - - - - S     39.88
2019-Dec-18 07:09:24 1005.400 - - - - S     39.88
2019-Dec-18 08:09:17 1005.500 - - - - S     39.88
2019-Dec-18 09:09:29 1006.300 - - - - S     39.88
2019-Dec-18 10:09:03 1007.500 - - - - S     39.88
2019-Dec-18 11:09:25 1007.900 - - - - S     39.88
2019-Dec-18 12:09:08 1007.700 - - - - S     39.88
2019-Dec-18 13:09:25 1007.000 - - - - S     39.88
2019-Dec-18 14:09:01 1006.700 - - - - S     39.88
2019-Dec-18 15:09:02 1006.600 - - - - S     39.88
2019-Dec-18 16:09:05 1006.800 - - - - S     39.88
2019-Dec-18 17:09:19 1007.000 - - - - S     39.88
2019-Dec-18 18:09:14 1007.300 - - - - S     39.88
2019-Dec-18 19:09:27 1007.600 - - - - S     39.88
2019-Dec-18 20:09:34 1008.300 - - - - S     39.88
2019-Dec-18 21:09:07 1008.400 - - - - S     39.88
2019-Dec-18 22:09:19 1008.900 - - - - S     39.88
2019-Dec-18 23:09:16 1008.400 - - - - S     39.88

Temperatura Máxima:    Temperatura Mínima:
Presión Máxima:1008.900 Hpa    Presión Mínima:1004.000 Hpa


Volver